Regional Weather Roundup
Issued by NWS

Home | Current Version | Previous Version | Graphics & Text | Print | Product List | Glossary On
Versions: 1 2 3 4 5 6 7 8 9 10 11 12 13 14 15 16 17 18 19 20 21 22 23 24 25 26 27 28
000
ASUS45 KSLC 242110
RWRUT

UTAH REGIONAL WEATHER ROUNDUP
NATIONAL WEATHER SERVICE SALT LAKE CITY UT
300 PM MDT SAT SEP 24 2016

UTZ001>011-023>025-242200-

NORTHERN UTAH

CITY           SKY/WX    TMP DP  RH WIND       PRES   REMARKS
BRIGHAM CITY     N/A     60  42  51 W7        30.26R
HILL AFB       PTSUNNY   58  42  53 N9        30.27R
LOGAN          MOSUNNY   58  44  60 NW6       30.25S
OGDEN          PTSUNNY   58  43  57 N10       30.26S
PROVO AIRPORT  CLOUDY    54  46  74 SE6       30.29S
SALT LAKE CITY PTSUNNY   60  44  55 CALM      30.26S
VERNAL         CLOUDY    56  42  59 E7        30.18F
WENDOVER       MOSUNNY   66  37  34 NW14      30.26S
HEBER CITY     CLOUDY    52  41  66 CALM      30.25S
WEST JORDAN    PTSUNNY   58  44  60 NW3       30.28S

$$

UTZ012>022-026-027-242200-

SOUTHERN/CENTRAL UTAH

CITY           SKY/WX    TMP DP  RH WIND       PRES   REMARKS
BLANDING       CLOUDY    59  33  38 E5        30.27S
BRYCE CANYON   MOSUNNY   56  34  43 NW16G23   30.30F
CEDAR CITY     SUNNY     65  33  30 N13G23    30.24F
DELTA          PTSUNNY   61  37  41 N3        30.27S
MILFORD        MOSUNNY   65  35  33 N12       30.25F
MOAB/CYNLANDS  CLOUDY    66  37  34 NW17G26   30.15F
PRICE          PTSUNNY   54  37  52 NW15G22   30.23F
ST GEORGE      MOCLDY    77  37  24 CALM      30.14F

$$

REGIONAL REPORTS     COLORADO/ARIZONA

CITY           SKY/WX    TMP DP  RH WIND       PRES   REMARKS
CRAIG, CO      CLOUDY    48  40  73 W12       30.22R
GRAND JUNCTION CLOUDY    58  42  55 N6        30.19S
RIFLE          CLOUDY    53  43  68 CALM      30.22R
MONTROSE       CLOUDY    55  36  48 N6        30.24S
CORTEZ         CLOUDY    58  35  42 W5        30.20F
PAGE, AZ       SUNNY     71  30  21 E8        30.16F
GRAND CANYON   SUNNY     63  32  31 VRB6      30.26F
KINGMAN        SUNNY     78  32  18 N9        30.13F
FLAGSTAFF      SUNNY     62  29  28 NE10G17   30.23F

$$

REGIONAL REPORTS    NEVADA/IDAHO/WYOMING

CITY           SKY/WX    TMP DP  RH WIND       PRES   REMARKS
LAS VEGAS, NV  SUNNY     85  26  11 NE13G20   30.08F
ELY            SUNNY     63  25  23 N10G22    30.31F
ELKO             N/A     66  28  24 MISG      30.31F
POCATELLO, ID  PTSUNNY   60  43  53 W22       30.24S
BURLEY         SUNNY     59  39  47 W14G25    30.26R
EVANSTON, WY   CLOUDY    46  34  62 W14       30.30R
ROCK SPRINGS   LGT RAIN  45  41  86 W13       30.20R

$$




USA.gov is the U.S. government's official web portal to all federal, state and local government web resources and services.